Notices

Please take our survey and provide feedback: https://eccc.sondage-survey.ca/f/LanguageSelection.aspx?s=442ca660-fcf1-47c0-95a9-59707d6fd709

Please note that the IDF dataset is available through this link: Intensity-Duration-Frequency (IDF) Files .

Hourly Data Report for November 11, 2020

MUSKOKA
ONTARIO
Current Station Operator: NAVCAN

44°58'29.000" N
79°18'12.000" W
281.90 m
6115529
71532
YQA

Download Data

Hourly Data (November 2020)
Hourly Data Report for November 11, 2020
TIME
LST
Temp Definition
°C
Dew Point Definition
°C
Rel Hum Definition
%
Precip. Amount Definition
mm

Wind Dir Definition
10's deg

Wind Spd Definition
km/h
Visibility Definition
km
Stn Press Definition
kPa
Hmdx Definition


Wind Chill Definition


Weather Definition


00:00 18.4 12.2 67 LegendMM 18 26 LegendMM 97.46     LegendNANA
01:00 18.2 11.8 66 LegendMM 16 22 LegendMM 97.34     LegendNANA
02:00 18.1 11.5 65 LegendMM 17 26 LegendMM 97.30     LegendNANA
03:00 15.3 13.4 88 LegendMM 17 18 16.1 97.28     Rain
04:00 15.2 14.0 93 LegendMM 16 24 16.1 97.16     LegendNANA
05:00 15.1 13.5 90 LegendMM 18 22 11.3 97.18     LegendNANA
06:00 15.5 13.5 88 LegendMM 19 18 16.1 97.18     LegendNANA
07:00 15.1 13.8 92 LegendMM 18 9 16.1 97.19     LegendNANA
08:00 15.2 14.3 94 LegendMM 25 8 16.1 97.30     LegendNANA
09:00 14.2 11.2 82 LegendMM 29 13 16.1 97.37     LegendNANA
10:00 13.2 8.7 74 LegendMM 26 21 16.1 97.46     LegendNANA
11:00 11.3 6.1 70 LegendMM 29 30 16.1 97.58     LegendNANA
12:00 10.0 3.4 63 LegendMM 26 28 16.1 97.65     LegendNANA
13:00 8.3 2.0 65 LegendMM 29 18 16.1 97.72     LegendNANA
14:00 7.4 1.2 65 LegendMM 28 15 16.1 97.78     LegendNANA
15:00 6.7 0.4 64 LegendMM 27 18 16.1 97.85     LegendNANA
16:00 6.1 0.2 66 LegendMM 27 24 16.1 97.91     LegendNANA
17:00 5.5 -1.0 63 LegendMM 28 24 16.1 97.98     LegendNANA
18:00 5.1 -1.4 63 LegendMM 29 21 16.1 98.06     LegendNANA
19:00 4.6 -0.8 68 LegendMM 28 17 16.1 98.10     LegendNANA
20:00 4.2 0.2 75 LegendMM 29 17 16.1 98.15     LegendNANA
21:00 4.1 0.6 78 LegendMM 31 17 16.1 98.18     LegendNANA
22:00 3.8 1.8 87 LegendMM 30 17 16.1 98.23     Rain
23:00 3.5 1.4 86 LegendMM 30 17 12.9 98.29     LegendNANA

Notes on Data Quality.

Legend

  • E = Estimated
  • M = Missing
  • NA = Not Available*
  • [empty] = Indicates an unobserved value
Date modified: